Regional Weather Roundup
Issued by NWS Huntsville, AL

Home | Current Version | Previous Version | Text Only | Print | Product List | Glossary On
Versions: 1 2 3 4 5 6 7 8 9 10 11 12 13 14 15 16 17 18 19 20 21 22 23 24 25 26 27 28 29 30 31 32 33 34 35 36 37 38 39 40 41 42 43 44 45 46 47 48 49 50
000
ASUS44 KHUN 200710
RWRHUN

WEATHER ROUNDUP FOR THE TENNESSEE VALLEY
NATIONAL WEATHER SERVICE HUNTSVILLE AL
100 AM CST MON NOV 20 2017

ALZ001>004-200800-
NORTHWEST ALABAMA

CITY           SKY/WX    TMP DP  RH WIND       PRES   REMARKS
COURTLAND HCN    N/A     30 N/A N/A CALM        N/A
RUSSELLVILLE     N/A     27 N/A N/A MISG        N/A
SHOALS AIRPORT CLEAR     34  26  72 N5        30.26F WCI  30
SHOALS TVA RES   N/A     36 N/A N/A MISG        N/A
$$

ALZ005>007-016-200800-
NORTH CENTRAL ALABAMA

CITY           SKY/WX    TMP DP  RH WIND       PRES   REMARKS
CULLMAN AG STN   N/A     30 N/A N/A N3          N/A
DECATUR AP     CLEAR     29  27  92 N5        30.25S WCI  24
HUNTSVILLE AP  CLEAR     31  25  78 NW5       30.24S WCI  26
MERIDIANVILLE  CLEAR     30  28  93 CALM      30.23S
REDSTONE ARSN  CLEAR     31  25  76 CALM      30.23S
VINEMONT AP    FAIR      29  25  84 CALM      30.25R
$$

ALZ008>010-200800-
NORTHEAST ALABAMA

CITY           SKY/WX    TMP DP  RH WIND       PRES   REMARKS
ALBERTVILLE    CLEAR     32  32 100 CALM      30.21R
FORT PAYNE     CLEAR     28  27  93 CALM      30.22R
SCOTTSBORO AP  CLEAR     30  28  93 CALM      30.24R
SCOTTSBORO HCN   N/A     28 N/A N/A MISG        N/A
VALLEY HEAD      N/A     27 N/A N/A MISG        N/A
$$

TNZ076-096-097-200800-
SOUTHEASTERN MIDDLE TENNESSEE

CITY           SKY/WX    TMP DP  RH WIND       PRES   REMARKS
TULLAHOMA      CLEAR     28  23  80 CALM      30.21S
WINCHESTER     CLEAR     21  21 100 CALM      30.22F
$$

...SURROUNDING SITES...

CITY           SKY/WX    TMP DP  RH WIND       PRES   REMARKS
ATLANTA        CLEAR     36  28  73 NW9       30.16S WCI  29
ANNISTON       CLEAR     30  27  88 CALM      30.22S
BIRMINGHAM     PTCLDY    34  30  85 CALM      30.24F
CHATTANOOGA    CLEAR     37  24  59 N8        30.23R WCI  31
CORINTH        FAIR      28  27  93 CALM      30.25F
DALTON         CLEAR     34  30  86 NW9       30.23R WCI  26
GADSDEN        CLEAR     28  28 100 CALM      30.25R
GOLDEN TRNGL   CLEAR     31  28  89 CALM      30.26F
HALEYVILLE     FAIR      29  26  89 CALM      30.25S
JACKSON TN     CLOUDY    26  24  92 CALM      30.26F
MEMPHIS        CLEAR     36  28  73 CALM      30.24F
NASHVILLE      CLEAR     30  26  85 S3        30.26S
ROME           CLEAR     36  27  69 NW7       30.21S WCI  30
SAVANNAH       CLEAR     27  27 100 CALM      30.25F
SELMER         CLEAR     27  25  93 CALM      30.24F
TUPELO         CLEAR     31  26  82 CALM      30.25F
TUSCALOOSA     CLEAR     34  32  92 CALM      30.25F
$$

...GULF COAST WEATHER...

CITY           SKY/WX    TMP DP  RH WIND       PRES   REMARKS
GULFPORT       CLEAR     43  34  70 N8        30.21S
PASCAGOULA     CLEAR     38  34  85 N3        30.21F
MOBILE         PTCLDY    39  33  79 N7        30.21S WCI  34
GULF SHORES    SUNNY     42  32  67 CALM      30.20S
PENSACOLA      CLEAR     46  32  58 N8        30.19R
DESTIN         CLEAR     50  36  58 N13       30.17F
PANAMA CITY    CLEAR     47  37  68 N6        30.17S
APPALACHICOLA  CLEAR     46  39  76 N12       30.14F
$$




USA.gov is the U.S. government's official web portal to all federal, state and local government web resources and services.